AAL3073 KIAD-KCLT

Flight info

Callsign AAL3073
Flight time 0h 55m
Altitude 38000
Route SCRAM6 GLANC AIROW CHSLY6
Aircraft A320/M-SDE3FGHIRWY/LB1

Departure

Time 2026-05-06 23:44
Airport Washington Dulles International Airport (KIAD)

Arrival

Time 2026-05-07 00:39
Airport Charlotte Douglas International Airport (KCLT)
Time Latitude Longitude Altitude Speed Heading
2026-05-06 23:09 38.94923 -77.45326 291 ft 0 kts 179°
2026-05-06 23:11 38.94922 -77.45326 302 ft 0 kts 180°
2026-05-06 23:31 38.94933 -77.45326 303 ft 4 kts 180°
2026-05-06 23:31 38.94959 -77.45326 300 ft 4 kts 180°
2026-05-06 23:32 38.94987 -77.45326 304 ft 4 kts 180°
2026-05-06 23:32 38.95008 -77.45324 300 ft 4 kts 203°
2026-05-06 23:32 38.95022 -77.45302 302 ft 3 kts 269°
2026-05-06 23:32 38.95021 -77.45275 300 ft 1 kts 270°
2026-05-06 23:37 38.95021 -77.45281 300 ft 3 kts 265°
2026-05-06 23:37 38.95022 -77.45405 300 ft 21 kts 274°
2026-05-06 23:37 38.95024 -77.45468 300 ft 0 kts 268°
2026-05-06 23:38 38.95024 -77.45480 300 ft 8 kts 268°
2026-05-06 23:39 38.95021 -77.45583 300 ft 9 kts 258°
2026-05-06 23:39 38.94993 -77.45605 300 ft 5 kts 188°
2026-05-06 23:39 38.94928 -77.45605 301 ft 13 kts 179°
2026-05-06 23:39 38.94820 -77.45606 302 ft 17 kts 181°
2026-05-06 23:40 38.94694 -77.45609 302 ft 19 kts 180°
2026-05-06 23:40 38.94555 -77.45612 303 ft 21 kts 182°
2026-05-06 23:40 38.94402 -77.45613 302 ft 22 kts 181°
2026-05-06 23:40 38.94242 -77.45615 301 ft 24 kts 180°
2026-05-06 23:41 38.94072 -77.45619 302 ft 25 kts 180°
2026-05-06 23:41 38.93913 -77.45622 300 ft 10 kts 182°
2026-05-06 23:41 38.93888 -77.45622 300 ft 12 kts 178°
2026-05-06 23:41 38.93766 -77.45621 302 ft 20 kts 180°
2026-05-06 23:42 38.93680 -77.45573 302 ft 17 kts 132°
2026-05-06 23:42 38.93595 -77.45497 301 ft 16 kts 179°
2026-05-06 23:42 38.93491 -77.45543 302 ft 9 kts 201°
2026-05-06 23:42 38.93455 -77.45560 301 ft 12 kts 200°
2026-05-06 23:43 38.93380 -77.45601 302 ft 9 kts 210°
2026-05-06 23:43 38.93391 -77.45694 300 ft 11 kts 297°
2026-05-06 23:43 38.93401 -77.45730 300 ft 0 kts 293°
2026-05-06 23:43 38.93473 -77.45984 300 ft 67 kts 288°
2026-05-06 23:44 38.93715 -77.46804 303 ft 126 kts 291°
2026-05-06 23:44 38.94079 -77.47987 526 ft 151 kts 290°
2026-05-06 23:44 38.94467 -77.49262 1067 ft 154 kts 284°
2026-05-06 23:44 38.94554 -77.50560 1862 ft 140 kts 270°
2026-05-06 23:45 38.94544 -77.51836 2379 ft 152 kts 269°
2026-05-06 23:45 38.94532 -77.53281 2765 ft 171 kts 263°
2026-05-06 23:45 38.93977 -77.54713 3158 ft 196 kts 223°
2026-05-06 23:45 38.92669 -77.55468 3757 ft 222 kts 188°
2026-05-06 23:46 38.91035 -77.55303 4299 ft 249 kts 174°
2026-05-06 23:46 38.89258 -77.55028 4965 ft 263 kts 180°
2026-05-06 23:46 38.87422 -77.55065 5884 ft 263 kts 189°
2026-05-06 23:46 38.85592 -77.55370 6832 ft 264 kts 195°
2026-05-06 23:47 38.83795 -77.55833 7729 ft 266 kts 198°
2026-05-06 23:47 38.81985 -77.56376 8686 ft 268 kts 199°
2026-05-06 23:47 38.80155 -77.56951 9553 ft 273 kts 200°
2026-05-06 23:47 38.78303 -77.57533 10190 ft 277 kts 200°
2026-05-06 23:48 38.76359 -77.58148 10584 ft 299 kts 200°
2026-05-06 23:48 38.74264 -77.58806 10909 ft 320 kts 200°
2026-05-06 23:48 38.72062 -77.59483 11535 ft 329 kts 199°
2026-05-06 23:48 38.69823 -77.60159 12357 ft 332 kts 199°
2026-05-06 23:49 38.67558 -77.60843 13148 ft 336 kts 200°
2026-05-06 23:49 38.65263 -77.61539 13846 ft 342 kts 200°
2026-05-06 23:49 38.62936 -77.62244 14547 ft 345 kts 200°
2026-05-06 23:49 38.60586 -77.62954 15260 ft 348 kts 201°
2026-05-06 23:50 38.58216 -77.63671 15934 ft 352 kts 201°
2026-05-06 23:50 38.53411 -77.65124 17302 ft 358 kts 202°
2026-05-06 23:50 38.50973 -77.65861 17930 ft 362 kts 202°
2026-05-06 23:51 38.48519 -77.66621 18556 ft 361 kts 206°
2026-05-06 23:51 38.46231 -77.67809 19135 ft 351 kts 218°
2026-05-06 23:51 38.44255 -77.69551 19742 ft 341 kts 229°
2026-05-06 23:51 38.42652 -77.71677 20336 ft 336 kts 236°
2026-05-06 23:52 38.41125 -77.73950 20741 ft 339 kts 236°
2026-05-06 23:52 38.39561 -77.76251 20887 ft 338 kts 236°
2026-05-06 23:52 38.38011 -77.78521 21061 ft 341 kts 236°
2026-05-06 23:52 38.36449 -77.80814 21626 ft 342 kts 237°
2026-05-06 23:53 38.34926 -77.83128 22290 ft 341 kts 237°
2026-05-06 23:53 38.33412 -77.85474 22853 ft 344 kts 238°
2026-05-06 23:53 38.31911 -77.87806 23375 ft 346 kts 238°
2026-05-06 23:53 38.30375 -77.90182 23866 ft 348 kts 238°
2026-05-06 23:54 38.28826 -77.92568 24318 ft 350 kts 238°
2026-05-06 23:54 38.27270 -77.94961 24778 ft 352 kts 237°
2026-05-06 23:54 38.25705 -77.97362 25229 ft 353 kts 237°
2026-05-06 23:54 38.24132 -77.99772 25676 ft 355 kts 237°
2026-05-06 23:55 38.22549 -78.02197 26089 ft 357 kts 237°
2026-05-06 23:55 38.20956 -78.04634 26474 ft 359 kts 237°
2026-05-06 23:55 38.19355 -78.07081 26870 ft 361 kts 237°
2026-05-06 23:55 38.17748 -78.09537 27261 ft 362 kts 237°
2026-05-06 23:56 38.16131 -78.12004 27621 ft 365 kts 237°
2026-05-06 23:56 38.14500 -78.14491 27990 ft 366 kts 237°
2026-05-06 23:56 38.12864 -78.16984 28321 ft 368 kts 236°
2026-05-06 23:56 38.11221 -78.19484 28666 ft 370 kts 236°
2026-05-06 23:57 38.09569 -78.21998 28994 ft 372 kts 236°
2026-05-06 23:57 38.07909 -78.24521 29312 ft 373 kts 236°
2026-05-06 23:57 38.06246 -78.27060 29628 ft 374 kts 236°
2026-05-06 23:57 38.04600 -78.29627 29936 ft 376 kts 236°
2026-05-06 23:58 38.02952 -78.32212 30185 ft 377 kts 237°
2026-05-06 23:58 38.01299 -78.34799 30479 ft 378 kts 237°
2026-05-06 23:58 37.99639 -78.37390 30777 ft 378 kts 237°
2026-05-06 23:58 37.97976 -78.39977 31103 ft 378 kts 237°
2026-05-06 23:59 37.96336 -78.42520 31475 ft 377 kts 237°
2026-05-06 23:59 37.94683 -78.45080 31875 ft 374 kts 237°
2026-05-06 23:59 37.93039 -78.47625 32273 ft 372 kts 238°
2026-05-06 23:59 37.91404 -78.50153 32665 ft 369 kts 238°
2026-05-07 00:00 37.89781 -78.52664 32847 ft 368 kts 238°
2026-05-07 00:00 37.88167 -78.55163 32870 ft 366 kts 238°
2026-05-07 00:00 37.85470 -78.59342 32877 ft 366 kts 238°
2026-05-07 00:01 37.81723 -78.65134 32875 ft 367 kts 238°
2026-05-07 00:01 37.78494 -78.70116 32876 ft 366 kts 238°
2026-05-07 00:02 37.75266 -78.75091 32871 ft 365 kts 238°
2026-05-07 00:02 37.71806 -78.79879 32890 ft 374 kts 232°
2026-05-07 00:03 37.67753 -78.83966 32893 ft 382 kts 226°
2026-05-07 00:03 37.63472 -78.87962 32885 ft 382 kts 227°
2026-05-07 00:04 37.59198 -78.91963 32893 ft 383 kts 227°
2026-05-07 00:04 37.54913 -78.95963 32901 ft 383 kts 226°
2026-05-07 00:05 37.50635 -78.99944 32909 ft 383 kts 227°
2026-05-07 00:05 37.46377 -79.03904 32915 ft 383 kts 227°
2026-05-07 00:06 37.42064 -79.07869 32923 ft 385 kts 225°
2026-05-07 00:06 37.37648 -79.11704 32924 ft 386 kts 225°
2026-05-07 00:07 37.33226 -79.15538 32926 ft 386 kts 225°
2026-05-07 00:07 37.28807 -79.19387 32923 ft 386 kts 225°
2026-05-07 00:08 37.24388 -79.23237 32923 ft 387 kts 225°
2026-05-07 00:08 37.20023 -79.27155 32918 ft 385 kts 226°
2026-05-07 00:09 37.16006 -79.31444 32921 ft 381 kts 229°
2026-05-07 00:09 37.11530 -79.35242 32909 ft 391 kts 223°
2026-05-07 00:10 37.07006 -79.38982 32909 ft 388 kts 225°
2026-05-07 00:10 37.02599 -79.42867 32908 ft 387 kts 226°
2026-05-07 00:11 36.98164 -79.46726 32904 ft 390 kts 224°
2026-05-07 00:11 36.93747 -79.50421 32899 ft 390 kts 224°
2026-05-07 00:12 36.89271 -79.54179 32906 ft 390 kts 224°
2026-05-07 00:12 36.84765 -79.57972 32907 ft 390 kts 224°
2026-05-07 00:13 36.80255 -79.61767 32911 ft 391 kts 224°
2026-05-07 00:13 36.75733 -79.65561 32910 ft 392 kts 224°
2026-05-07 00:14 36.71209 -79.69349 32930 ft 392 kts 224°
2026-05-07 00:14 36.66673 -79.73143 32939 ft 393 kts 224°
2026-05-07 00:15 36.62134 -79.76933 32936 ft 393 kts 224°
2026-05-07 00:15 36.57596 -79.80714 32908 ft 391 kts 224°
2026-05-07 00:16 36.55340 -79.82593 32501 ft 390 kts 223°
2026-05-07 00:16 36.53082 -79.84479 31651 ft 394 kts 223°
2026-05-07 00:16 36.50794 -79.86399 30600 ft 400 kts 222°
2026-05-07 00:16 36.49260 -79.87687 29976 ft 403 kts 221°
2026-05-07 00:17 36.46935 -79.89626 29161 ft 401 kts 221°
2026-05-07 00:17 36.44631 -79.91531 28485 ft 395 kts 221°
2026-05-07 00:17 36.42351 -79.93414 27758 ft 391 kts 221°
2026-05-07 00:17 36.40097 -79.95275 27045 ft 388 kts 221°
2026-05-07 00:18 36.37859 -79.97124 26356 ft 384 kts 221°
2026-05-07 00:18 36.35650 -79.98946 25893 ft 376 kts 221°
2026-05-07 00:18 36.33513 -80.00702 25618 ft 363 kts 221°
2026-05-07 00:18 36.31418 -80.02428 25044 ft 359 kts 221°
2026-05-07 00:19 36.29343 -80.04142 24451 ft 357 kts 222°
2026-05-07 00:19 36.27280 -80.05845 23882 ft 355 kts 222°
2026-05-07 00:19 36.25231 -80.07534 23290 ft 353 kts 222°
2026-05-07 00:19 36.23197 -80.09209 22665 ft 350 kts 222°
2026-05-07 00:20 36.21181 -80.10868 22072 ft 346 kts 222°
2026-05-07 00:20 36.19180 -80.12515 21494 ft 344 kts 222°
2026-05-07 00:20 36.17193 -80.14149 20911 ft 342 kts 222°
2026-05-07 00:20 36.15223 -80.15768 20354 ft 339 kts 222°
2026-05-07 00:21 36.13269 -80.17374 19801 ft 336 kts 222°
2026-05-07 00:21 36.11321 -80.18973 19264 ft 335 kts 222°
2026-05-07 00:21 36.09387 -80.20560 18728 ft 332 kts 222°
2026-05-07 00:21 36.07468 -80.22133 18200 ft 330 kts 222°
2026-05-07 00:22 36.05565 -80.23693 17599 ft 327 kts 221°
2026-05-07 00:22 36.03673 -80.25245 17010 ft 325 kts 221°
2026-05-07 00:22 36.01794 -80.26786 16440 ft 323 kts 221°
2026-05-07 00:22 35.99939 -80.28304 16081 ft 315 kts 221°
2026-05-07 00:23 35.98147 -80.29763 15984 ft 305 kts 221°
2026-05-07 00:23 35.96402 -80.31190 15770 ft 305 kts 221°
2026-05-07 00:23 35.94635 -80.32639 15360 ft 305 kts 220°
2026-05-07 00:23 35.92864 -80.34090 14861 ft 305 kts 220°
2026-05-07 00:24 35.91098 -80.35535 14357 ft 304 kts 220°
2026-05-07 00:24 35.89338 -80.36973 13884 ft 302 kts 219°
2026-05-07 00:24 35.87587 -80.38401 13369 ft 301 kts 219°
2026-05-07 00:24 35.85857 -80.39808 13069 ft 295 kts 219°
2026-05-07 00:25 35.84135 -80.41206 12996 ft 297 kts 219°
2026-05-07 00:25 35.82496 -80.42631 12993 ft 278 kts 224°
2026-05-07 00:25 35.81003 -80.44079 12713 ft 271 kts 224°
2026-05-07 00:25 35.79526 -80.45507 12310 ft 268 kts 224°
2026-05-07 00:26 35.78061 -80.46922 11871 ft 267 kts 223°
2026-05-07 00:26 35.76602 -80.48331 11446 ft 266 kts 223°
2026-05-07 00:26 35.75086 -80.49629 11110 ft 266 kts 216°
2026-05-07 00:26 35.73405 -80.50602 11008 ft 271 kts 207°
2026-05-07 00:27 35.71586 -80.51311 10990 ft 275 kts 204°
2026-05-07 00:27 35.69763 -80.52004 10894 ft 272 kts 204°
2026-05-07 00:27 35.68071 -80.52927 10562 ft 261 kts 223°
2026-05-07 00:27 35.66920 -80.54581 10145 ft 253 kts 241°
2026-05-07 00:28 35.66003 -80.56425 9746 ft 251 kts 242°
2026-05-07 00:28 35.65101 -80.58263 9279 ft 251 kts 242°
2026-05-07 00:28 35.64221 -80.60079 8847 ft 250 kts 242°
2026-05-07 00:28 35.63336 -80.61913 8397 ft 249 kts 242°
2026-05-07 00:29 35.62461 -80.63742 7998 ft 248 kts 242°
2026-05-07 00:29 35.61595 -80.65558 7617 ft 245 kts 242°
2026-05-07 00:30 35.59054 -80.70967 6427 ft 241 kts 242°
2026-05-07 00:30 35.58224 -80.72751 6051 ft 239 kts 242°
2026-05-07 00:30 35.57418 -80.74527 5643 ft 237 kts 242°
2026-05-07 00:30 35.56630 -80.76289 5281 ft 234 kts 242°
2026-05-07 00:31 35.55847 -80.78052 4830 ft 236 kts 242°
2026-05-07 00:31 35.55065 -80.79805 4463 ft 234 kts 242°
2026-05-07 00:31 35.54298 -80.81553 4105 ft 230 kts 242°
2026-05-07 00:31 35.53556 -80.83282 3993 ft 231 kts 242°
2026-05-07 00:32 35.52825 -80.85001 3998 ft 220 kts 242°
2026-05-07 00:32 35.52150 -80.86610 3997 ft 204 kts 242°
2026-05-07 00:32 35.51518 -80.88097 3993 ft 189 kts 242°
2026-05-07 00:32 35.50920 -80.89510 4000 ft 189 kts 242°
2026-05-07 00:33 35.50305 -80.90939 3994 ft 190 kts 236°
2026-05-07 00:33 35.49295 -80.91951 4017 ft 194 kts 205°
2026-05-07 00:33 35.48005 -80.92469 4013 ft 195 kts 202°
2026-05-07 00:33 35.46694 -80.92946 4017 ft 197 kts 202°
2026-05-07 00:34 35.45380 -80.93419 4015 ft 196 kts 202°
2026-05-07 00:34 35.44086 -80.93882 4019 ft 193 kts 202°
2026-05-07 00:34 35.42816 -80.94344 4022 ft 193 kts 202°
2026-05-07 00:34 35.41942 -80.94660 4018 ft 195 kts 202°
2026-05-07 00:35 35.41546 -80.94803 4019 ft 198 kts 201°
2026-05-07 00:35 35.40177 -80.95073 3996 ft 201 kts 189°
2026-05-07 00:35 35.38771 -80.95044 3893 ft 203 kts 183°
2026-05-07 00:35 35.37369 -80.94897 3624 ft 201 kts 184°
2026-05-07 00:36 35.35982 -80.94784 3360 ft 199 kts 182°
2026-05-07 00:36 35.34603 -80.94663 3089 ft 197 kts 183°
2026-05-07 00:36 35.33242 -80.94544 2828 ft 194 kts 183°
2026-05-07 00:36 35.31952 -80.94431 2582 ft 178 kts 183°
2026-05-07 00:37 35.30720 -80.94328 2382 ft 176 kts 183°
2026-05-07 00:37 35.29544 -80.94223 2145 ft 161 kts 183°
2026-05-07 00:37 35.28488 -80.94133 1942 ft 145 kts 183°
2026-05-07 00:37 35.27487 -80.94052 1757 ft 140 kts 182°
2026-05-07 00:38 35.26561 -80.93968 1567 ft 128 kts 182°
2026-05-07 00:38 35.25657 -80.93911 1405 ft 132 kts 180°
2026-05-07 00:38 35.24753 -80.93803 1264 ft 129 kts 178°
2026-05-07 00:38 35.23854 -80.93729 1096 ft 132 kts 180°
2026-05-07 00:39 35.22929 -80.93656 855 ft 133 kts 179°
2026-05-07 00:39 35.21990 -80.93582 735 ft 128 kts 174°
2026-05-07 00:39 35.21285 -80.93516 734 ft 78 kts 176°
2026-05-07 00:39 35.20961 -80.93523 734 ft 22 kts 212°
2026-05-07 00:40 35.20922 -80.93578 733 ft 0 kts 250°
2026-05-07 00:40 35.20921 -80.93592 733 ft 6 kts 275°
2026-05-07 00:41 35.20978 -80.93627 733 ft 18 kts 15°
2026-05-07 00:41 35.21190 -80.93641 733 ft 42 kts 356°
2026-05-07 00:41 35.21474 -80.93669 733 ft 34 kts 356°
2026-05-07 00:41 35.21705 -80.93687 733 ft 26 kts 356°
2026-05-07 00:42 35.21772 -80.93692 735 ft 11 kts 356°
2026-05-07 00:42 35.21841 -80.93704 735 ft 0 kts 349°
2026-05-07 00:42 35.21857 -80.93705 734 ft 0 kts 356°
2026-05-07 00:42 35.21859 -80.93705 734 ft 0 kts 356°
2026-05-07 00:43 35.21627 -80.93680 733 ft 3 kts 355°
2026-05-07 00:43 35.21537 -80.93670 733 ft 7 kts 351°
2026-05-07 00:43 35.21581 -80.93701 733 ft 10 kts 314°
2026-05-07 00:43 35.21633 -80.93777 731 ft 13 kts 309°
2026-05-07 00:44 35.21696 -80.93867 733 ft 15 kts 313°
2026-05-07 00:44 35.21784 -80.93962 732 ft 18 kts 317°
2026-05-07 00:44 35.21879 -80.94071 732 ft 17 kts 313°
2026-05-07 00:44 35.21922 -80.94147 731 ft 3 kts 278°
2026-05-07 00:45 35.21915 -80.94157 732 ft 3 kts 224°
2026-05-07 00:45 35.21903 -80.94179 732 ft 2 kts 240°
2026-05-07 00:45 35.21898 -80.94186 731 ft 1 kts 242°
2026-05-07 00:45 35.21896 -80.94194 732 ft 0 kts 253°